Weather in Sobolevo

Russia / Ivanovo Oblast     57°15′39″N   43°01′27″E
temp.,
°C
wind,
m/s
gust,
m/s
humid.,
%
clouds,
%
prec.,
mm/h
press.,
hPa
HPBL,
m
7 march, sun
sun700:00−16wsw33953 0.0 101121
03:00−16ssw449629 0.0 100935
06:00−16s589647 0.0 100691
09:00−10s8138873 0.0 1002531
12:00−7s91492100 1.1 998953
15:00−5s81193100 1.8 994890
18:00−5s61095100 0.9 992444
21:00−5w4895100 1.8 991374
8 march, mon
mon800:00−9nw4488100 0.1 99052
03:00−11nw4782100 0.1 991106
06:00−13wnw4581100 0.0 99261
09:00−11wnw3585100 0.0 994146
12:00−8wnw3582100 0.0 996284
15:00−6nw3482100 0.0 998301
18:00−10nw4491100 0.0 100037
21:00−10n5992100 0.2 1003283
9 march, tue
tue900:00−14nnw459584 0.0 100579
03:00−17nnw459666 0.1 100878
06:00−21nnw459742 0.0 101065
09:00−20nnw469541 0.0 1012183
12:00−16nnw358845 0.0 1013415
15:00−14nnw468771 0.0 1014611
18:00−16nnw4793100 0.1 101599
21:00−20nnw4796100 0.1 1018111
10 march, wed
wed1000:00−24n459786 0.0 102077
03:00−27nnw459776 0.0 102166
06:00−29nnw449746 0.0 102355
09:00−27nnw369537 0.0 1024194
12:00−21nnw358524 0.0 1025368
15:00−16wnw368212 0.0 1024467
18:00−19w45900 0.0 102352
21:00−20w479637 0.0 1024100
11 march, thu
thu1100:00−21wnw45951 0.0 102482
03:00−22wnw45966 0.0 102490
06:00−21wnw589448 0.0 1024110
09:00−18wnw488923 0.0 1025226
12:00−12w57850 0.0 1025325
15:00−9w57800 0.0 1024262
18:00−13wsw34880 0.0 102421
21:00−16sw44840 0.0 102426